Вернуться в каталог

GEESAT 2-09

АктивенСвязьLEO
NORAD 58913·PAYLOAD·🇨🇳 China

Запущен Feb 2, 2024 с Xichang Satellite Launch Center

Loading…

Ближайшие Пролёты (ближайшие 24 часа)

TLE

СвежийSource: Space-Track

Эпоха: Sep 14, 2026, 22:46 UTC

1 58913U 24023J   26257.94921232  .00001029  00000-0  15119-3 0  9993
2 58913  50.0040 298.4273 0021343 350.6777   9.3762 14.83441483142240

Отслеживайте GEESAT 2-09 в реальном времени с AllMySat

Download on the App Store